Location: River House Observatory
(37.8577°N, 76.3548°W)
Time: 00:01:22
(UTC-05:00)

Daily predictions for brighter satellites

Satellite Brightness Start Highest point End
(mag) Time Altitude Azimuth Time Altitude Azimuth Time Altitude Azimuth
CENTAUR R/B 4.0 03:08:19 44° E 03:08:19 44° E 03:14:31 10° SE
Cosmos 1697 Rocket 4.0 03:47:04 37° ENE 03:47:04 37° ENE 03:51:11 10° NE
SJ 16-02 4.1 03:51:15 14° ESE 03:52:35 15° E 03:55:09 10° ENE
Cosmos 2297 Rocket 3.8 04:09:39 25° SSE 04:09:39 25° SSE 04:11:52 10° SSE
Cosmos 2285 Rocket 4.1 04:08:03 77° E 04:08:03 77° E 04:14:19 10° SSE
Lacrosse 5 rocket 3.7 04:10:33 21° ENE 04:10:33 21° ENE 04:12:41 10° E
CZ-4B R/B 3.7 04:12:03 10° NNE 04:17:24 56° E 04:19:30 36° SSE
CZ-4B DEB 4.1 04:26:35 10° NNE 04:32:06 89° ESE 04:32:50 68° SSW
Okean O Rocket 3.1 04:30:05 10° N 04:32:14 28° N 04:32:14 28° N
Cosmos 2082 4.2 04:36:48 45° S 04:36:48 45° S 04:40:47 10° S
Cosmos 2278 4.4 04:38:23 39° NNW 04:38:23 39° NNW 04:42:28 10° N
OAO 3 Rocket 3.7 04:42:43 50° S 04:42:43 50° S 04:47:10 10° ESE
Cosmos 1821 Rocket 3.8 04:40:17 38° SSW 04:42:45 74° W 04:48:58 10° N
Cosmos 2322 Rocket 4.5 04:43:25 10° SSE 04:47:49 24° E 04:52:15 10° NE
PAYLOAD B 4.1 04:44:25 10° N 04:49:51 62° WNW 04:50:42 55° WSW
Cosmos 1535 Rocket 4.3 04:48:31 10° SSW 04:54:39 70° W 05:00:45 10° N
USA 116 4.5 04:50:28 10° SSE 04:54:49 66° ENE 04:59:44 10° N
Cosmos 1125 Rocket 3.8 04:50:00 10° S 04:55:07 67° ESE 05:00:17 10° NNE
Cosmos 372 Rocket 4.2 04:50:19 10° S 04:55:17 68° ESE 05:00:23 10° NNE
CENTAUR R/B 3.5 04:55:38 37° W 04:56:58 39° WSW 05:04:40 10° S
Cosmos 1933 3.6 04:55:03 10° S 04:59:05 67° E 05:03:08 10° NNE
Cosmos 1980 Rocket 2.1 04:55:52 27° SSW 04:59:08 82° WNW 05:04:50 10° NNE
Meteor 2-10 Rocket 3.3 04:58:36 47° SW 04:59:46 60° W 05:04:44 10° N
Cosmos 1862 3.1 04:55:48 10° N 04:59:48 87° W 05:03:48 10° S
COSMOS 2455 3.9 04:57:00 10° NNW 05:02:47 46° ENE 05:08:32 10° SE
IRS-1C Rocket 4.0 05:01:02 10° N 05:06:16 66° WNW 05:11:29 10° SSW
CZ-2C R/B 3.9 05:01:37 10° SSE 05:06:18 77° ENE 05:10:57 10° N
CZ-3 R/B 3.1 04:59:18 26° WSW 05:09:40 50° SSW 05:15:55 10° ESE
ATLAS 5 CENTAUR R/B 2.5 05:10:51 10° SSW 05:15:06 49° ESE 05:19:43 10° NE
Aureole 1 Rocket 4.2 05:14:14 10° NNW 05:21:09 47° W 05:26:31 10° S
SEDSat Delta rocket 4.0 05:19:40 25° SW 05:21:37 37° S 05:25:39 10° ESE
Cosmos 1441 Rocket 3.8 05:17:52 10° S 05:21:47 62° E 05:25:45 10° NNE
Hubble Space Telescope 2.7 05:22:37 16° SSW 05:24:29 21° S 05:27:36 10° SE
Cosmos 468 4.4 05:21:10 10° NNW 05:26:21 70° WSW 05:31:32 10° S
Meteor 2-17 Rocket 4.3 05:21:21 10° SSW 05:27:21 67° W 05:33:25 10° N
Cosmos 1605 Rocket 3.9 05:22:06 10° SSW 05:28:11 65° W 05:34:15 10° N
Okean-O 2.6 05:24:45 10° NNE 05:29:13 88° ESE 05:33:39 10° SSW
DELTA 2 R/B(2) 4.4 05:28:14 33° W 05:29:38 62° SSW 05:32:03 10° ESE
Cosmos 1862 Rocket 3.7 05:25:42 10° S 05:29:59 73° E 05:34:23 10° N
Cosmos 1697 Rocket 3.6 05:28:51 24° WNW 05:30:01 26° WNW 05:34:43 10° N
Feng Yun 1-1 Rocket 4.2 05:24:36 10° NNE 05:30:11 84° WNW 05:35:54 10° SSW
SJ 16-02 1.7 05:28:21 22° SW 05:30:46 41° WNW 05:34:59 10° N
Cosmos 1733 Rocket 3.3 05:27:02 10° N 05:31:25 73° E 05:35:48 10° SSE
SL-16 R/B 2.7 05:26:51 10° S 05:32:25 62° ESE 05:38:00 10° NNE
Meteor 1-26 Rocket 4.4 05:26:34 10° S 05:32:29 81° E 05:38:20 10° N
COSMO-SKYMED 1 2.5 05:32:33 10° S 05:36:51 67° W 05:41:11 10° NNW
Cosmos 1269 Rocket 4.1 05:32:54 10° NNW 05:38:13 84° ENE 05:43:29 10° SSE
MTI 3.7 05:35:40 10° SSE 05:38:51 88° ENE 05:42:02 10° NNW
COSMOS 2441 4.4 05:40:32 10° NNE 05:45:28 85° ESE 05:50:23 10° SSW
Lacrosse 5 rocket 1.8 05:46:15 19° WNW 05:48:38 37° SW 05:52:26 10° SSE
CZ-2C R/B 2.4 05:43:53 10° N 05:48:58 72° WNW 05:54:06 10° SSW
NOAA 6 4.3 05:46:21 10° N 05:51:16 46° WNW 05:56:09 10° SW
Cosmos 405 3.2 05:48:17 10° NNW 05:51:45 48° W 05:55:11 10° S
BREEZE-M DEB (TANK) 4.1 05:50:18 10° NW 05:53:39 47° NE 06:04:16 10° ESE
Meteor 1-14 Rocket 4.4 05:49:57 10° N 05:55:58 87° E 06:01:52 10° S
Cosmos 2061 Rocket 4.4 05:51:01 10° S 05:57:10 69° E 06:03:19 10° NNE
DMSP B5D1-3 4.5 05:53:43 10° S 05:58:46 71° WSW 06:03:52 10° NNW
Cosmos 1606 2.9 05:55:17 10° S 05:59:05 76° E 06:02:53 10° N
Meteor 1-20 Rocket 4.5 05:54:08 10° N 06:00:00 79° E 06:05:45 10° SSE
Cosmos 1802 Rocket 4.4 05:55:33 10° S 06:01:55 75° E 06:08:16 10° N
Cosmos 2173 Rocket 4.0 05:56:39 10° S 06:02:52 89° ESE 06:09:03 10° N
Cosmos 1459 Rocket 4.1 05:56:49 10° S 06:03:02 89° W 06:09:24 10° N
IDEFIX/ARIANE 42P 3.1 05:58:34 10° N 06:03:20 37° WNW 06:08:03 10° SW
PAYLOAD A 4.5 05:59:52 10° N 06:04:10 34° WNW 06:08:35 10° SW
SMAP 3.9 06:07:44 10° NNE 06:12:19 56° E 06:16:52 10° S
Cosmos 1484 Rocket 2.9 06:09:04 10° NNE 06:13:04 87° ESE 06:17:05 10° SSW
Cosmos 405 Rocket 3.7 06:11:13 10° SW 06:14:35 26° WNW 06:17:56 10° NNW
CSL-04 Rocket 4.5 06:11:12 10° NNE 06:16:25 57° E 06:21:39 10° S
Aureole 3 3.0 06:13:48 10° NNW 06:16:36 40° W 06:19:34 10° SSW
Thor Agena Rocket 4.2 06:11:55 10° SSE 06:17:06 62° ENE 06:22:16 10° N
Cosmos 2263 Rocket 2.3 06:14:13 10° NNW 06:19:55 86° ENE 06:25:36 10° SSE
